Lid_Strength_Index
2 2 2 2 2 2 2 1 1 1 0 0 1 2 3 3 4 6 10 8 6 4 5 7 8 9 9 9 8 10 15 16 16 15 14 12 12 10 10 9 8 7 7 4 3
3 2 2 2 2 2 2 2 2 2 1 0 -0 -0 1 2 7 8 5 4 4 4 8 8 10 10 11 10 10 12 16 15 13 14 14 12 11 10 11 10 9 7 7 4 3
3 3 3 3 2 2 2 2 2 3 2 1 1 0 0 1 6 9 4 5 5 5 6 8 8 10 11 11 11 12 14 13 13 12 12 11 12 10 12 12 9 8 8 5 4
4 4 4 3 3 3 3 3 2 2 2 2 1 0 1 3 11 7 2 3 5 7 8 9 10 12 13 13 11 14 12 12 11 11 11 12 11 11 11 10 8 9 6 7 5
4 4 4 4 4 3 3 3 3 2 2 2 1 2 5 7 8 7 2 3 6 7 9 11 11 12 13 13 12 13 13 12 11 11 12 10 11 12 11 9 9 9 7 6 6
4 4 4 4 4 4 3 3 3 2 2 1 1 1 6 11 8 6 7 6 7 7 8 10 11 11 13 13 13 12 13 13 13 12 12 12 13 14 11 9 9 9 9 9 8
3 3 3 3 3 3 2 2 2 2 2 1 2 4 8 9 8 9 8 7 7 7 9 7 8 11 12 13 12 12 14 13 13 12 13 12 15 15 10 11 11 12 11 10 9
2 2 2 2 2 2 1 0 0 1 1 2 2 7 10 7 8 8 8 9 8 7 7 7 7 9 10 11 12 14 16 17 14 12 13 13 17 13 12 12 13 13 12 11 10
2 2 2 2 1 1 -0 -1 -1 -1 2 2 6 9 10 6 8 8 8 9 8 9 9 8 8 10 11 14 15 14 17 17 14 13 15 15 17 14 13 12 13 13 13 12 11
3 2 2 2 1 0 -1 -1 -1 0 2 4 5 10 8 8 9 9 9 9 9 9 9 11 13 15 15 16 19 16 17 15 15 13 14 16 17 14 13 13 13 13 12 13 12
3 3 3 2 1 0 2 4 6 8 7 9 9 9 7 7 8 9 8 9 10 11 15 12 16 18 16 15 14 14 15 15 14 13 14 15 15 14 12 14 14 14 13 12 11
3 3 3 2 2 1 4 6 5 4 10 6 7 7 6 6 9 8 8 12 12 15 14 15 17 14 13 14 15 15 17 17 14 14 15 15 15 13 12 12 12 12 12 12 11
4 3 2 2 1 5 6 7 3 2 10 8 5 7 7 7 9 9 9 11 13 14 14 16 14 12 13 14 14 15 17 17 16 15 14 16 15 15 12 11 11 11 11 11 11
4 3 2 2 6 6 8 5 4 3 14 10 8 7 6 6 9 7 8 10 12 13 13 13 12 13 14 14 14 16 13 13 14 16 19 16 19 15 13 13 12 11 11 11 12
4 3 3 2 7 8 6 5 4 4 27 10 8 5 6 7 7 7 7 9 13 12 12 13 13 14 14 14 12 14 13 14 14 17 20 19 22 18 14 13 13 13 12 13 13
4 3 3 6 7 7 6 5 6 20 27 12 8 9 10 8 8 7 8 8 8 11 11 12 10 12 13 13 13 13 15 15 16 19 25 17 18 17 15 14 13 12 12 12 13
4 3 4 5 10 6 6 7 21 25 14 15 13 11 11 12 9 8 10 11 12 15 15 12 12 11 11 14 12 12 15 19 21 22 22 17 20 16 13 13 12 11 12 13 12
4 4 5 6 6 6 7 16 25 22 16 11 12 12 13 12 12 10 11 13 9 11 14 17 19 11 11 13 14 14 14 18 23 22 21 19 20 16 13 12 12 11 12 13 13
5 9 7 7 6 7 12 21 20 15 14 14 13 15 15 12 12 13 13 12 10 10 15 16 16 11 11 12 11 14 16 13 17 17 19 19 17 13 13 14 15 15 14 14 13
10 11 10 6 7 8 16 19 17 12 12 12 16 14 17 15 15 14 15 10 11 8 8 12 16 11 12 11 11 12 11 17 16 22 23 19 19 17 15 15 15 14 14 14 13
12 14 9 7 8 13 21 22 13 11 11 13 15 15 14 14 14 16 14 10 8 9 8 10 13 14 12 14 14 14 15 14 14 16 21 22 19 15 15 14 14 14 14 13 13
13 20 9 8 17 17 23 17 12 13 11 12 13 14 14 14 15 15 15 12 9 9 12 10 12 16 13 10 11 12 14 13 17 19 17 18 18 12 13 14 13 14 13 13 13
15 17 10 11 23 25 18 15 13 15 14 14 14 13 13 14 17 14 14 10 9 11 11 10 13 17 19 13 11 13 13 13 13 14 17 19 18 12 12 12 13 14 14 13 13
16 20 17 14 15 17 22 20 19 13 13 13 13 12 14 15 13 16 15 11 10 10 8 9 12 15 18 18 15 14 13 12 13 17 17 16 14 13 12 11 11 12 13 13 13
16 19 16 24 20 16 16 17 19 19 13 13 14 14 14 21 16 18 15 13 10 9 10 11 16 15 15 15 13 14 15 14 15 14 17 15 14 13 11 11 11 11 12 13 13
18 18 15 18 14 15 16 17 16 15 15 16 15 13 13 21 15 17 14 13 13 11 11 10 17 15 17 14 14 16 16 15 14 14 14 14 14 11 9 9 10 10 11 13 12
12 11 12 15 15 18 17 15 14 14 13 12 13 13 14 13 11 11 10 10 11 12 13 14 16 20 19 15 16 20 17 14 14 13 13 16 13 10 11 10 10 11 11 11 12